"Period start","avg(HW err(1)/warn(2) (#))","avg(Visibility (m))","avg(Weather code (#))","avg(Precip intensity (mm/h))","min(HW err(1)/warn(2) (#))","max(HW err(1)/warn(2) (#))","std(HW err(1)/warn(2) (#))","med(HW err(1)/warn(2) (#))","min(Visibility (m))","max(Visibility (m))","std(Visibility (m))","med(Visibility (m))","min(Weather code (#))","max(Weather code (#))","std(Weather code (#))","med(Weather code (#))","min(Precip intensity (mm/h))","max(Precip intensity (mm/h))","std(Precip intensity (mm/h))","med(Precip intensity (mm/h))"
2014-08-03 00:00:00,0,10519,10,0.00,0,0,0,0,7673,17336,3320,9001,10,10,0,10,0.00,0.00,0.00,0.00
2014-08-03 00:10:00,0,10139,10,0.00,0,0,0,0,4730,26583,6176,7592,10,10,0,10,0.00,0.00,0.00,0.00
2014-08-03 00:20:00,0,13897,6,0.00,0,0,0,0,8869,21334,3670,13150,0,10,5,10,0.00,0.00,0.00,0.00
2014-08-03 00:30:00,0,12456,0,0.00,0,0,0,0,7295,20100,3934,12528,0,0,0,0,0.00,0.00,0.00,0.00
2014-08-03 00:40:00,0,12874,0,0.00,0,0,0,0,7950,21753,3684,11836,0,0,0,0,0.00,0.00,0.00,0.00
2014-08-03 00:50:00,0,28103,0,0.00,0,0,0,0,18782,38576,6480,28668,0,0,0,0,0.00,0.00,0.00,0.00
2014-08-03 01:00:00,0,16941,0,0.00,0,0,0,0,6726,25974,6157,19410,0,0,0,0,0.00,0.00,0.00,0.00
2014-08-03 01:10:00,0,30580,0,0.00,0,0,0,0,14761,42518,9765,32368,0,0,0,0,0.00,0.00,0.00,0.00
2014-08-03 01:20:00,0,41658,0,0.00,0,0,0,0,23235,49334,7186,43508,0,0,0,0,0.00,0.00,0.00,0.00
2014-08-03 01:30:00,0,15231,0,0.00,0,0,0,0,6117,25400,6457,16226,0,0,0,0,0.00,0.00,0.00,0.00
2014-08-03 01:40:00,0,9778,0,0.00,0,0,0,0,7405,13112,1857,9838,0,0,0,0,0.00,0.00,0.00,0.00
2014-08-03 01:50:00,0,12209,9,0.00,0,0,0,0,5965,19907,4642,9584,0,10,3,10,0.00,0.00,0.00,0.00
2014-08-03 02:00:00,0,18039,2,0.00,0,0,0,0,9691,25966,5352,17712,0,10,4,0,0.00,0.00,0.00,0.00
2014-08-03 02:10:00,0,26676,0,0.00,0,0,0,0,9481,43813,11497,27062,0,0,0,0,0.00,0.00,0.00,0.00
2014-08-03 02:20:00,0,24921,0,0.00,0,0,0,0,10430,40579,9628,24962,0,0,0,0,0.00,0.00,0.00,0.00
2014-08-03 02:30:00,0,27461,0,0.00,0,0,0,0,12097,44030,10331,26072,0,0,0,0,0.00,0.00,0.00,0.00
2014-08-03 02:40:00,0,41861,0,0.00,0,0,0,0,33456,47288,3970,41092,0,0,0,0,0.00,0.00,0.00,0.00
2014-08-03 02:50:00,0,36020,0,0.00,0,0,0,0,23393,49689,8252,37242,0,0,0,0,0.00,0.00,0.00,0.00
2014-08-03 03:00:00,0,39678,0,0.00,0,0,0,0,32309,49255,5483,38984,0,0,0,0,0.00,0.00,0.00,0.00
2014-08-03 03:10:00,0,46516,0,0.00,0,0,0,0,38870,50000,2996,46956,0,0,0,0,0.00,0.00,0.00,0.00
2014-08-03 03:20:00,0,45509,0,0.00,0,0,0,0,37425,50000,4311,46308,0,0,0,0,0.00,0.00,0.00,0.00
2014-08-03 03:30:00,0,44612,0,0.00,0,0,0,0,39316,50000,4175,43060,0,0,0,0,0.00,0.00,0.00,0.00
2014-08-03 03:40:00,0,45590,0,0.00,0,0,0,0,39355,50000,3215,46985,0,0,0,0,0.00,0.00,0.00,0.00
2014-08-03 03:50:00,0,42222,0,0.00,0,0,0,0,32668,50000,6477,42049,0,0,0,0,0.00,0.00,0.00,0.00
2014-08-03 04:00:00,0,40408,0,0.00,0,0,0,0,28784,50000,6273,39677,0,0,0,0,0.00,0.00,0.00,0.00
2014-08-03 04:10:00,0,36046,0,0.00,0,0,0,0,28187,42178,3850,36966,0,0,0,0,0.00,0.00,0.00,0.00
2014-08-03 04:20:00,0,37779,0,0.00,0,0,0,0,31017,43471,4319,37597,0,0,0,0,0.00,0.00,0.00,0.00
2014-08-03 04:30:00,0,44252,0,0.00,0,0,0,0,34656,50000,5733,45843,0,0,0,0,0.00,0.00,0.00,0.00
2014-08-03 04:40:00,0,37936,0,0.00,0,0,0,0,30219,43998,4260,36678,0,0,0,0,0.00,0.00,0.00,0.00
2014-08-03 04:50:00,0,38421,0,0.00,0,0,0,0,31607,47492,4503,39526,0,0,0,0,0.00,0.00,0.00,0.00
2014-08-03 05:00:00,0,40302,0,0.00,0,0,0,0,37450,42600,1776,40662,0,0,0,0,0.00,0.00,0.00,0.00
2014-08-03 05:10:00,0,39082,0,0.00,0,0,0,0,31341,50000,4864,38144,0,0,0,0,0.00,0.00,0.00,0.00
2014-08-03 05:20:00,0,33656,0,0.00,0,0,0,0,23869,44259,7877,31070,0,0,0,0,0.00,0.00,0.00,0.00
2014-08-03 05:30:00,0,24837,0,0.00,0,0,0,0,21358,31207,3309,23884,0,0,0,0,0.00,0.00,0.00,0.00
2014-08-03 05:40:00,0,25828,0,0.00,0,0,0,0,17639,36183,5093,25446,0,0,0,0,0.00,0.00,0.00,0.00
2014-08-03 05:50:00,0,25755,0,0.00,0,0,0,0,19822,30065,3156,26164,0,0,0,0,0.00,0.00,0.00,0.00
2014-08-03 06:00:00,0,23522,0,0.00,0,0,0,0,16816,30870,4547,22959,0,0,0,0,0.00,0.00,0.00,0.00
2014-08-03 06:10:00,0,19853,0,0.00,0,0,0,0,14752,24282,2832,20079,0,0,0,0,0.00,0.00,0.00,0.00
2014-08-03 06:20:00,0,21793,0,0.00,0,0,0,0,20220,24170,1326,21201,0,0,0,0,0.00,0.00,0.00,0.00
2014-08-03 06:30:00,0,19811,0,0.00,0,0,0,0,18221,22674,1172,19692,0,0,0,0,0.00,0.00,0.00,0.00
2014-08-03 06:40:00,0,17634,0,0.00,0,0,0,0,15837,19501,1237,17424,0,0,0,0,0.00,0.00,0.00,0.00
2014-08-03 06:50:00,0,19304,0,0.00,0,0,0,0,15921,25012,2726,18690,0,0,0,0,0.00,0.00,0.00,0.00
2014-08-03 07:00:00,0,18230,0,0.00,0,0,0,0,16498,22117,1605,18160,0,0,0,0,0.00,0.00,0.00,0.00
2014-08-03 07:10:00,0,17041,0,0.00,0,0,0,0,15110,19746,1385,16738,0,0,0,0,0.00,0.00,0.00,0.00
2014-08-03 07:20:00,0,16239,0,0.00,0,0,0,0,15155,17979,942,16164,0,0,0,0,0.00,0.00,0.00,0.00
2014-08-03 07:30:00,0,16200,0,0.00,0,0,0,0,14167,17801,1294,16545,0,0,0,0,0.00,0.00,0.00,0.00
2014-08-03 07:40:00,0,15676,0,0.00,0,0,0,0,12578,19028,2287,15440,0,0,0,0,0.00,0.00,0.00,0.00
2014-08-03 07:50:00,0,13728,0,0.00,0,0,0,0,11512,16634,1586,13547,0,0,0,0,0.00,0.00,0.00,0.00
2014-08-03 08:00:00,0,13980,0,0.00,0,0,0,0,12171,16043,1101,13994,0,0,0,0,0.00,0.00,0.00,0.00
2014-08-03 08:10:00,0,12576,0,0.00,0,0,0,0,11309,14030,875,12675,0,0,0,0,0.00,0.00,0.00,0.00
2014-08-03 08:20:00,0,14056,0,0.00,0,0,0,0,12113,17327,1639,13728,0,0,0,0,0.00,0.00,0.00,0.00
2014-08-03 08:30:00,0,12663,0,0.00,0,0,0,0,11740,13775,747,12387,0,0,0,0,0.00,0.00,0.00,0.00
2014-08-03 08:40:00,0,12545,0,0.00,0,0,0,0,11649,13553,493,12592,0,0,0,0,0.00,0.00,0.00,0.00
2014-08-03 08:50:00,0,12856,0,0.00,0,0,0,0,12073,14020,581,12712,0,0,0,0,0.00,0.00,0.00,0.00
2014-08-03 09:00:00,0,14319,0,0.00,0,0,0,0,12601,16401,1271,13884,0,0,0,0,0.00,0.00,0.00,0.00
2014-08-03 09:10:00,0,13145,0,0.00,0,0,0,0,12448,13911,447,13144,0,0,0,0,0.00,0.00,0.00,0.00
2014-08-03 09:20:00,0,13618,0,0.00,0,0,0,0,12600,15424,873,13466,0,0,0,0,0.00,0.00,0.00,0.00
2014-08-03 09:30:00,0,13846,0,0.00,0,0,0,0,12930,14906,631,13624,0,0,0,0,0.00,0.00,0.00,0.00
2014-08-03 09:40:00,0,14335,0,0.00,0,0,0,0,13512,15867,720,14080,0,0,0,0,0.00,0.00,0.00,0.00
2014-08-03 09:50:00,0,14318,0,0.00,0,0,0,0,12745,15875,888,14188,0,0,0,0,0.00,0.00,0.00,0.00
2014-08-03 10:00:00,0,15680,0,0.00,0,0,0,0,14885,17579,848,15371,0,0,0,0,0.00,0.00,0.00,0.00
2014-08-03 10:10:00,0,16023,0,0.00,0,0,0,0,14774,18031,1019,15679,0,0,0,0,0.00,0.00,0.00,0.00
2014-08-03 10:20:00,0,15884,0,0.00,0,0,0,0,14169,18088,1176,15906,0,0,0,0,0.00,0.00,0.00,0.00
2014-08-03 10:30:00,0,15302,0,0.00,0,0,0,0,13708,19175,1584,15032,0,0,0,0,0.00,0.00,0.00,0.00
2014-08-03 10:40:00,0,14134,0,0.00,0,0,0,0,2097,19428,4407,15050,0,0,0,0,0.00,0.00,0.00,0.00
2014-08-03 10:50:00,0,6100,10,0.00,0,0,0,0,1060,14706,3805,5768,10,10,0,10,0.00,0.00,0.00,0.00
2014-08-03 11:00:00,0,2413,17,0.00,0,0,0,0,307,9109,2748,1430,10,34,10,10,0.00,0.00,0.00,0.00
2014-08-03 11:10:00,0,12348,32,0.00,0,0,0,0,7567,14999,2234,12924,30,34,2,32,0.00,0.00,0.00,0.00
2014-08-03 11:20:00,0,6077,21,0.00,0,0,0,0,541,12482,4291,5548,20,30,3,20,0.00,0.00,0.00,0.00
2014-08-03 11:30:00,0,6095,20,0.00,0,0,0,0,404,13645,5157,6084,20,20,0,20,0.00,0.00,0.00,0.00
2014-08-03 11:40:00,0,808,34,0.00,0,0,0,0,330,1770,536,512,30,34,1,34,0.00,0.00,0.00,0.00
2014-08-03 11:50:00,0,228,34,0.00,0,0,0,0,193,341,43,211,34,34,0,34,0.00,0.00,0.00,0.00
2014-08-03 12:00:00,0,258,34,0.00,0,0,0,0,193,354,53,242,34,34,0,34,0.00,0.00,0.00,0.00
2014-08-03 12:10:00,0,481,34,0.00,0,0,0,0,157,1716,461,270,34,34,0,34,0.00,0.00,0.00,0.00
2014-08-03 12:20:00,0,192,34,0.00,0,0,0,0,128,275,51,192,34,34,0,34,0.00,0.00,0.00,0.00
2014-08-03 12:30:00,0,179,34,0.00,0,0,0,0,111,301,69,152,34,34,0,34,0.00,0.00,0.00,0.00
2014-08-03 12:40:00,0,181,34,0.00,0,0,0,0,152,211,20,177,34,34,0,34,0.00,0.00,0.00,0.00
2014-08-03 12:50:00,0,4094,32,0.00,0,0,0,0,171,15800,5485,966,30,34,1,33,0.00,0.00,0.00,0.00
2014-08-03 13:00:00,0,15139,29,0.00,0,0,0,0,2810,24125,6518,15846,20,33,4,30,0.00,0.00,0.00,0.00
2014-08-03 13:10:00,0,9644,20,0.00,0,0,0,0,347,15554,5229,11025,20,20,0,20,0.00,0.00,0.00,0.00
2014-08-03 13:20:00,0,14393,20,0.00,0,0,0,0,2704,24363,6805,16097,20,20,0,20,0.00,0.00,0.00,0.00
2014-08-03 13:30:00,0,17704,20,0.00,0,0,0,0,9075,23721,4614,17906,20,20,0,20,0.00,0.00,0.00,0.00
2014-08-03 13:40:00,0,16458,20,0.00,0,0,0,0,13935,19001,1418,16268,20,20,0,20,0.00,0.00,0.00,0.00
2014-08-03 13:50:00,0,13785,20,0.00,0,0,0,0,10936,16526,1694,13908,20,20,0,20,0.00,0.00,0.00,0.00
2014-08-03 14:00:00,0,12130,16,0.00,0,0,0,0,10913,13034,772,12463,0,20,8,20,0.00,0.00,0.00,0.00
2014-08-03 14:10:00,0,14006,0,0.00,0,0,0,0,12034,15875,1255,14376,0,0,0,0,0.00,0.00,0.00,0.00
2014-08-03 14:20:00,0,12533,0,0.00,0,0,0,0,9517,15798,2158,13074,0,0,0,0,0.00,0.00,0.00,0.00
2014-08-03 14:30:00,0,16028,0,0.00,0,0,0,0,14697,17559,1086,15721,0,0,0,0,0.00,0.00,0.00,0.00
2014-08-03 14:40:00,0,16461,0,0.00,0,0,0,0,15456,17959,787,16295,0,0,0,0,0.00,0.00,0.00,0.00
2014-08-03 14:50:00,0,12278,0,0.00,0,0,0,0,7952,16699,2706,12607,0,0,0,0,0.00,0.00,0.00,0.00
2014-08-03 15:00:00,0,11238,0,0.00,0,0,0,0,10001,12607,828,11099,0,0,0,0,0.00,0.00,0.00,0.00
2014-08-03 15:10:00,0,12040,0,0.00,0,0,0,0,9716,14320,1503,12234,0,0,0,0,0.00,0.00,0.00,0.00
2014-08-03 15:20:00,0,13176,0,0.00,0,0,0,0,11441,14569,894,13308,0,0,0,0,0.00,0.00,0.00,0.00
2014-08-03 15:30:00,0,12808,0,0.00,0,0,0,0,11921,13590,567,12875,0,0,0,0,0.00,0.00,0.00,0.00
2014-08-03 15:40:00,0,13383,0,0.00,0,0,0,0,12487,14305,558,13470,0,0,0,0,0.00,0.00,0.00,0.00
2014-08-03 15:50:00,0,12204,0,0.00,0,0,0,0,10875,13768,821,12194,0,0,0,0,0.00,0.00,0.00,0.00
2014-08-03 16:00:00,0,12767,0,0.00,0,0,0,0,11264,13610,656,12952,0,0,0,0,0.00,0.00,0.00,0.00
2014-08-03 16:10:00,0,13308,0,0.00,0,0,0,0,9626,15048,1482,13626,0,0,0,0,0.00,0.00,0.00,0.00
2014-08-03 16:20:00,0,12502,0,0.00,0,0,0,0,11396,15211,1268,11865,0,0,0,0,0.00,0.00,0.00,0.00
2014-08-03 16:30:00,0,12442,0,0.00,0,0,0,0,11485,14381,797,12234,0,0,0,0,0.00,0.00,0.00,0.00
2014-08-03 16:40:00,0,12286,0,0.00,0,0,0,0,8243,14096,1798,12823,0,0,0,0,0.00,0.00,0.00,0.00
2014-08-03 16:50:00,0,15629,0,0.00,0,0,0,0,14452,17428,972,15174,0,0,0,0,0.00,0.00,0.00,0.00
2014-08-03 17:00:00,0,17444,0,0.00,0,0,0,0,15043,20730,1837,17068,0,0,0,0,0.00,0.00,0.00,0.00
2014-08-03 17:10:00,0,17547,0,0.00,0,0,0,0,16191,19649,926,17448,0,0,0,0,0.00,0.00,0.00,0.00
2014-08-03 17:20:00,0,17829,0,0.00,0,0,0,0,16595,19375,712,17891,0,0,0,0,0.00,0.00,0.00,0.00
2014-08-03 17:30:00,0,18096,0,0.00,0,0,0,0,16442,20728,1315,18164,0,0,0,0,0.00,0.00,0.00,0.00
2014-08-03 17:40:00,0,13615,0,0.00,0,0,0,0,8856,18390,3505,13208,0,0,0,0,0.00,0.00,0.00,0.00
2014-08-03 17:50:00,0,18043,0,0.00,0,0,0,0,11743,22829,2830,18488,0,0,0,0,0.00,0.00,0.00,0.00
2014-08-03 18:00:00,0,14968,0,0.00,0,0,0,0,10278,19277,2521,15037,0,0,0,0,0.00,0.00,0.00,0.00
2014-08-03 18:10:00,0,15619,0,0.00,0,0,0,0,13690,16949,833,15894,0,0,0,0,0.00,0.00,0.00,0.00
2014-08-03 18:20:00,0,14533,0,0.00,0,0,0,0,12362,16536,1441,14752,0,0,0,0,0.00,0.00,0.00,0.00
2014-08-03 18:30:00,0,12470,0,0.00,0,0,0,0,11858,13588,520,12259,0,0,0,0,0.00,0.00,0.00,0.00
2014-08-03 18:40:00,0,13662,0,0.00,0,0,0,0,11420,17381,1963,12632,0,0,0,0,0.00,0.00,0.00,0.00
2014-08-03 18:50:00,0,15798,0,0.00,0,0,0,0,14393,17069,1005,15840,0,0,0,0,0.00,0.00,0.00,0.00
2014-08-03 19:00:00,0,17505,0,0.00,0,0,0,0,15245,18949,931,17665,0,0,0,0,0.00,0.00,0.00,0.00
2014-08-03 19:10:00,0,17678,0,0.00,0,0,0,0,15648,21816,1885,16982,0,0,0,0,0.00,0.00,0.00,0.00
2014-08-03 19:20:00,0,20153,0,0.00,0,0,0,0,18355,22761,1173,20064,0,0,0,0,0.00,0.00,0.00,0.00
2014-08-03 19:30:00,0,18605,0,0.00,0,0,0,0,17081,20029,1032,18763,0,0,0,0,0.00,0.00,0.00,0.00
2014-08-03 19:40:00,0,17953,0,0.00,0,0,0,0,17221,19359,741,17696,0,0,0,0,0.00,0.00,0.00,0.00
2014-08-03 19:50:00,0,18087,0,0.00,0,0,0,0,17011,19908,1075,17694,0,0,0,0,0.00,0.00,0.00,0.00
2014-08-03 20:00:00,0,20899,0,0.00,0,0,0,0,19634,23776,1254,20746,0,0,0,0,0.00,0.00,0.00,0.00
2014-08-03 20:10:00,0,22702,0,0.00,0,0,0,0,19861,25634,1705,22406,0,0,0,0,0.00,0.00,0.00,0.00
2014-08-03 20:20:00,0,25929,0,0.00,0,0,0,0,23483,28487,1632,25626,0,0,0,0,0.00,0.00,0.00,0.00
2014-08-03 20:30:00,0,30928,0,0.00,0,0,0,0,25500,40899,4466,30041,0,0,0,0,0.00,0.00,0.00,0.00
2014-08-03 20:40:00,0,45515,0,0.00,0,0,0,0,39799,50000,3370,45366,0,0,0,0,0.00,0.00,0.00,0.00
2014-08-03 20:50:00,0,49896,0,0.00,0,0,0,0,49553,50000,164,50000,0,0,0,0,0.00,0.00,0.00,0.00
2014-08-03 21:00:00,0,49978,0,0.00,0,0,0,0,49776,50000,67,50000,0,0,0,0,0.00,0.00,0.00,0.00
2014-08-03 21:10:00,0,49747,0,0.00,0,0,0,0,48414,50000,484,50000,0,0,0,0,0.00,0.00,0.00,0.00
2014-08-03 21:20:00,0,47974,0,0.00,0,0,0,0,42118,50000,2875,50000,0,0,0,0,0.00,0.00,0.00,0.00
2014-08-03 21:30:00,0,45985,0,0.00,0,0,0,0,40104,50000,3301,46498,0,0,0,0,0.00,0.00,0.00,0.00
2014-08-03 21:40:00,0,48397,0,0.00,0,0,0,0,42097,50000,2684,50000,0,0,0,0,0.00,0.00,0.00,0.00
2014-08-03 21:50:00,0,49704,0,0.00,0,0,0,0,47960,50000,643,50000,0,0,0,0,0.00,0.00,0.00,0.00
2014-08-03 22:00:00,0,49260,0,0.00,0,0,0,0,45922,50000,1293,50000,0,0,0,0,0.00,0.00,0.00,0.00
2014-08-03 22:10:00,0,48632,0,0.00,0,0,0,0,44888,50000,1846,49881,0,0,0,0,0.00,0.00,0.00,0.00
2014-08-03 22:20:00,0,48452,0,0.00,0,0,0,0,44830,50000,2164,49873,0,0,0,0,0.00,0.00,0.00,0.00
2014-08-03 22:30:00,0,46635,0,0.00,0,0,0,0,39586,50000,3411,48071,0,0,0,0,0.00,0.00,0.00,0.00
2014-08-03 22:40:00,0,49140,0,0.00,0,0,0,0,45778,50000,1393,50000,0,0,0,0,0.00,0.00,0.00,0.00
2014-08-03 22:50:00,0,46735,0,0.00,0,0,0,0,42746,50000,2839,46839,0,0,0,0,0.00,0.00,0.00,0.00
2014-08-03 23:00:00,0,46732,0,0.00,0,0,0,0,42932,50000,2625,46999,0,0,0,0,0.00,0.00,0.00,0.00
2014-08-03 23:10:00,0,49225,0,0.00,0,0,0,0,47894,50000,833,49606,0,0,0,0,0.00,0.00,0.00,0.00
2014-08-03 23:20:00,0,47263,0,0.00,0,0,0,0,43036,50000,2825,48510,0,0,0,0,0.00,0.00,0.00,0.00
2014-08-03 23:30:00,0,50000,0,0.00,0,0,0,0,50000,50000,0,50000,0,0,0,0,0.00,0.00,0.00,0.00
2014-08-03 23:40:00,0,49249,0,0.00,0,0,0,0,45912,50000,1305,50000,0,0,0,0,0.00,0.00,0.00,0.00
2014-08-03 23:50:00,0,49388,0,0.00,0,0,0,0,45927,50000,1257,50000,0,0,0,0,0.00,0.00,0.00,0.00
